Flag for American Samoa Weather past 2 weeks in Pago Pago, American Samoa

82 °F


Feels Like: 89 °F
Forecast: 78 / 82 °F
Wind: 20 mph from Southeast

Location: Pago Pago / Int. Airp.

Current Time: Oct 6, 2015 at 2:01:01 PM

Latest Report: Oct 6, 2015 at 12:50 PM

Visibility: 11 mi

Pressure: 29.90 "Hg

Humidity: 82%

Dew point: 76 °F

Location of Pago PagoLocation

Historic Weather in Pago Pago — Graph


Pago Pago temperature yesterday

Maximum temperature yesterday: 81 °F (at 12:50 PM)
Minimum temperature yesterday: 77 °F (at 7:50 PM)
Average temperature yesterday: 79 °F

Past Weeks' High & Low Weather Summary

High99 °F (Sep 29, 3:50 PM)100% (Sep 23, 3:50 AM)30.01 "Hg (Sep 23, 3:50 AM)
Low74 °F (Oct 1, 1:53 AM)49% (Sep 29, 3:50 PM)29.76 "Hg (Sep 24, 3:50 PM)
Average81 °F84%29.88 "Hg
* Reported Sep 21 12:50 PM — Oct 6 12:50 PM, Pago Pago, Weather by CustomWeather, © 2015

Note: Actual official high and low records may vary slightly from our data, if they occured in-between our weather recording intervals... More about our weather records


Pago Pago weather history for previous 24 hours

Time TempWeatherWind HumidityBarometerVisibility
12:50 PM
Tue, Oct 6
82 °FCloudy.20 mph82%29.90 "Hg11 mi
11:51 AM82 °FCloudy.21 mph80%29.93 "Hg10 mi
10:50 AM81 °FSprinkles. Cloudy.26 mph86%29.95 "Hg10 mi
9:52 AM82 °FCloudy.20 mph82%29.96 "Hg10 mi
8:50 AM82 °FCloudy.20 mph83%29.96 "Hg12 mi
7:50 AM81 °FBroken clouds.22 mph89%29.95 "Hg12 mi
7:00 AM79 °FCloudy.25 mph90%29.92 "Hg12 mi
6:50 AM79 °FCloudy.25 mph90%29.92 "Hg12 mi
6:00 AM78 °FSprinkles. Overcast.23 mph93%29.90 "Hg7 mi
5:54 AM78 °FSprinkles. Overcast.23 mph93%29.90 "Hg7 mi
4:55 AM79 °FMostly cloudy.22 mph93%29.88 "Hg10 mi
2:55 AM78 °FSprinkles. Mostly cloudy.23 mph96%29.87 "Hg4 mi
2:00 AM78 °FSprinkles. Mostly cloudy.18 mph97%29.88 "Hg7 mi
1:55 AM78 °FSprinkles. Mostly cloudy.18 mph97%29.88 "Hg7 mi
12:54 AM77 °FOvercast.18 mph98%29.90 "Hg10 mi
11:50 PM
Mon, Oct 5
78 °FMostly cloudy.23 mph97%29.91 "Hg10 mi
11:00 PM78 °FMostly cloudy.26 mph95%29.92 "Hg10 mi
10:50 PM78 °FMostly cloudy.26 mph95%29.92 "Hg10 mi
10:00 PM78 °FSprinkles. Mostly cloudy.25 mph96%29.91 "Hg4 mi
9:50 PM77 °FSprinkles. Mostly cloudy.25 mph100%29.91 "Hg4 mi
9:00 PM77 °FSprinkles. Mostly cloudy.29 mph97%29.90 "Hg3 mi
8:50 PM77 °FSprinkles. Mostly cloudy.29 mph97%29.90 "Hg3 mi
8:00 PM77 °FSprinkles. Mostly cloudy.25 mph96%29.88 "Hg3 mi
7:50 PM77 °FSprinkles. Mostly cloudy.25 mph96%29.88 "Hg3 mi
7:00 PM78 °FSprinkles. Mostly cloudy.29 mph96%29.85 "Hg6 mi
6:50 PM78 °FSprinkles. Mostly cloudy.29 mph96%29.85 "Hg6 mi
6:00 PM77 °FSprinkles. Mostly cloudy.29 mph97%29.83 "Hg4 mi
4:50 PM78 °FLots of rain. Mostly cloudy.24 mph98%29.81 "Hg1 mi
3:50 PM78 °FRain showers. Mostly cloudy.25 mph97%29.80 "Hg1 mi
3:00 PM80 °FSprinkles. Cloudy.24 mph95%29.78 "Hg10 mi
2:52 PM80 °FSprinkles. Cloudy.24 mph95%29.78 "Hg10 mi
Weather by CustomWeather, © 2015

See weather overviewHow to use our weather pages